contact:dominique.lefevre@mio.osupytheas.fr, maurice.libes@osupytheas.fr, didier.mallarino@osupytheas.fr
Project:EMSO http://www.emso-fr.org/EMSO-France
Depth: 2436.0 m
Title:EMSO Ligure Ouest : Data MII capteur AQUADOPP
Date,Latitude,Longitude,X_East,Y_North,Z_Up,Amplitude_X,Amplitude_Y,Amplitude_Z,Batterie,SoundSpeed,Heading,Pitch,Roll,Pressure,TIS,Speed,Direction
, degrees North, degrees East, m.s-1, m.s-1,m.s-1, 1, 1, 1, Volt, m.s-1, degree, degree, degree, dbar, degree_C, m.s-1, degree
2020-01-09T00:04:03,42.805,6.029,0.002,0.039,-0.023,112.0,117.0,106.0,13.3,1505.3,327.9,-0.7,1.8,2470.202,13.32,0.039,2.9
2020-01-09T00:07:03,42.805,6.029,-0.004,0.023,0.007,113.0,116.0,107.0,13.4,1505.3,326.6,-0.7,1.8,2470.222,13.33,0.023,350.1
2020-01-09T00:10:03,42.805,6.029,0.008,0.013,-0.024,112.0,117.0,107.0,13.4,1505.3,327.1,-0.7,1.8,2470.241,13.33,0.015,31.6
2020-01-09T00:13:03,42.805,6.029,0.005,0.01,-0.02,112.0,116.0,106.0,13.4,1505.3,323.8,-0.7,1.8,2470.23,13.33,0.011,26.6
2020-01-09T00:16:03,42.805,6.029,0.011,0.021,-0.001,112.0,113.0,106.0,13.4,1505.3,325.7,-0.7,1.9,2470.176,13.33,0.023,27.6
2020-01-09T00:19:03,42.805,6.029,-0.019,0.007,-0.009,112.0,116.0,107.0,13.4,1505.3,327.4,-0.7,1.8,2470.237,13.33,0.02,290.2
2020-01-09T00:22:03,42.805,6.029,0.006,0.018,0.008,112.0,116.0,106.0,13.3,1505.3,325.4,-0.7,1.8,2470.228,13.33,0.018,18.4
2020-01-09T00:25:03,42.805,6.029,0.004,0.026,-0.02,111.0,116.0,108.0,13.4,1505.3,326.0,-0.7,1.9,2470.204,13.33,0.026,8.7
2020-01-09T00:28:03,42.805,6.029,-0.003,0.013,-0.032,113.0,116.0,107.0,13.3,1505.3,325.1,-0.7,1.9,2470.16,13.33,0.013,347.0
2020-01-09T00:31:03,42.805,6.029,0.028,-0.003,0.017,112.0,117.0,107.0,13.4,1505.3,326.0,-0.7,1.8,2470.167,13.33,0.028,96.1
2020-01-09T00:34:03,42.805,6.029,0.016,0.003,-0.009,111.0,117.0,107.0,13.4,1505.3,327.6,-0.7,1.8,2470.207,13.33,0.016,79.4
2020-01-09T00:37:03,42.805,6.029,0.003,0.003,-0.016,112.0,117.0,108.0,13.4,1505.3,326.4,-0.7,1.8,2470.238,13.33,0.004,45.0
2020-01-09T00:40:03,42.805,6.029,0.031,0.0,-0.006,113.0,116.0,106.0,13.4,1505.3,324.5,-0.7,1.8,2470.201,13.33,0.03,90.0
2020-01-09T00:43:03,42.805,6.029,0.01,0.02,-0.003,112.0,116.0,107.0,13.4,1505.3,326.4,-0.7,1.8,2470.209,13.33,0.022,26.6
2020-01-09T00:46:03,42.805,6.029,0.004,0.006,-0.023,111.0,116.0,108.0,13.3,1505.3,324.9,-0.7,1.8,2470.226,13.33,0.007,33.7
2020-01-09T00:49:03,42.805,6.029,0.009,0.031,-0.002,111.0,117.0,108.0,13.4,1505.3,326.6,-0.7,1.8,2470.243,13.33,0.032,16.2
2020-01-09T00:52:03,42.805,6.029,0.0,0.011,0.004,112.0,115.0,108.0,13.4,1505.3,326.0,-0.7,1.8,2470.221,13.33,0.011,0.0
2020-01-09T00:55:03,42.805,6.029,0.011,0.023,0.021,112.0,116.0,107.0,13.4,1505.3,323.9,-0.7,1.9,2470.247,13.33,0.025,25.6
2020-01-09T00:58:03,42.805,6.029,0.041,0.017,0.014,113.0,116.0,107.0,13.3,1505.3,325.2,-0.7,1.8,2470.175,13.33,0.044,67.5
2020-01-09T01:04:03,42.805,6.029,0.011,0.021,-0.031,114.0,115.0,107.0,13.3,1505.3,323.3,-0.7,1.8,2470.242,13.31,0.023,27.6
2020-01-09T01:07:03,42.805,6.029,0.022,0.031,0.008,112.0,117.0,107.0,13.4,1505.3,324.6,-0.8,1.8,2470.249,13.31,0.038,35.4
2020-01-09T01:10:03,42.805,6.029,0.019,0.017,-0.019,112.0,116.0,107.0,13.4,1505.3,326.2,-0.7,1.9,2470.217,13.32,0.025,48.2
2020-01-09T01:13:03,42.805,6.029,0.008,0.022,0.012,111.0,117.0,108.0,13.4,1505.3,325.2,-0.7,1.8,2470.28,13.32,0.023,20.0
2020-01-09T01:16:03,42.805,6.029,0.007,0.017,0.013,114.0,116.0,108.0,13.4,1505.3,322.9,-0.7,1.8,2470.235,13.32,0.018,22.4
2020-01-09T01:19:03,42.805,6.029,0.013,0.006,-0.011,112.0,115.0,107.0,13.4,1505.3,328.0,-0.7,1.8,2470.214,13.32,0.014,65.2
2020-01-09T01:22:03,42.805,6.029,0.008,0.011,-0.03,112.0,115.0,107.0,13.4,1505.3,325.1,-0.7,1.9,2470.217,13.33,0.013,36.0
2020-01-09T01:25:03,42.805,6.029,0.038,0.013,-0.015,113.0,115.0,108.0,13.3,1505.3,328.5,-0.7,1.8,2470.247,13.33,0.04,71.1
2020-01-09T01:28:03,42.805,6.029,0.014,-0.012,-0.021,112.0,114.0,108.0,13.3,1505.3,327.0,-0.7,1.9,2470.251,13.33,0.018,130.6
2020-01-09T01:31:03,42.805,6.029,0.02,0.002,-0.001,112.0,115.0,108.0,13.3,1505.3,326.5,-0.7,1.8,2470.185,13.33,0.02,84.3
2020-01-09T01:34:03,42.805,6.029,0.031,0.003,-0.018,112.0,115.0,107.0,13.4,1505.3,325.4,-0.7,1.8,2470.216,13.33,0.031,84.5
2020-01-09T01:37:03,42.805,6.029,0.011,0.028,0.005,113.0,114.0,107.0,13.4,1505.3,325.9,-0.7,1.8,2470.242,13.33,0.03,21.4
2020-01-09T01:40:03,42.805,6.029,0.004,0.008,0.008,111.0,115.0,107.0,13.4,1505.3,325.7,-0.7,1.8,2470.225,13.33,0.008,26.6
2020-01-09T01:43:03,42.805,6.029,0.001,0.014,-0.036,112.0,114.0,107.0,13.4,1505.3,325.2,-0.7,1.8,2470.227,13.33,0.014,4.1
2020-01-09T01:46:03,42.805,6.029,0.025,-0.016,-0.018,112.0,115.0,108.0,13.4,1505.3,327.5,-0.7,1.9,2470.239,13.33,0.029,122.6
2020-01-09T01:49:03,42.805,6.029,0.016,0.008,-0.001,112.0,115.0,108.0,13.4,1505.3,326.7,-0.7,1.9,2470.215,13.33,0.017,63.4
2020-01-09T01:52:03,42.805,6.029,0.013,0.011,0.006,111.0,115.0,108.0,13.4,1505.3,328.1,-0.7,1.8,2470.229,13.33,0.017,49.8
2020-01-09T01:55:03,42.805,6.029,0.012,0.01,-0.047,112.0,116.0,107.0,13.4,1505.3,326.8,-0.7,1.9,2470.234,13.33,0.015,50.2
2020-01-09T01:58:03,42.805,6.029,-0.012,0.004,-0.047,113.0,115.0,107.0,13.3,1505.3,328.3,-0.7,1.8,2470.224,13.33,0.012,288.4
2020-01-09T02:04:03,42.805,6.029,0.002,-0.009,-0.021,112.0,116.0,107.0,13.4,1505.3,326.5,-0.8,1.8,2470.241,13.31,0.009,167.5
2020-01-09T02:07:03,42.805,6.029,0.025,-0.001,-0.003,114.0,115.0,109.0,13.4,1505.3,324.8,-0.7,1.8,2470.293,13.31,0.025,92.3
2020-01-09T02:10:03,42.805,6.029,0.013,0.003,-0.004,112.0,114.0,107.0,13.3,1505.3,328.5,-0.7,1.9,2470.273,13.32,0.013,77.0
2020-01-09T02:13:03,42.805,6.029,0.005,0.016,0.002,112.0,115.0,107.0,13.4,1505.3,328.1,-0.7,1.9,2470.246,13.32,0.016,17.4
2020-01-09T02:16:03,42.805,6.029,0.024,0.016,-0.01,112.0,114.0,108.0,13.4,1505.3,326.3,-0.7,1.9,2470.27,13.32,0.028,56.3
2020-01-09T02:19:03,42.805,6.029,0.009,-0.025,-0.026,111.0,115.0,109.0,13.3,1505.3,328.0,-0.7,1.9,2470.236,13.33,0.026,160.2
2020-01-09T02:22:03,42.805,6.029,0.015,0.0,-0.024,110.0,115.0,107.0,13.4,1505.3,325.0,-0.7,1.8,2470.253,13.33,0.015,90.0
2020-01-09T02:25:03,42.805,6.029,0.01,-0.004,-0.03,113.0,114.0,107.0,13.3,1505.3,326.9,-0.7,1.8,2470.282,13.33,0.01,111.8
2020-01-09T02:28:03,42.805,6.029,0.019,-0.001,-0.055,113.0,114.0,107.0,13.4,1505.3,324.3,-0.7,1.8,2470.282,13.33,0.019,93.0
2020-01-09T02:31:03,42.805,6.029,0.014,0.009,-0.022,112.0,116.0,108.0,13.4,1505.3,326.0,-0.7,1.8,2470.254,13.33,0.016,57.3
2020-01-09T02:34:03,42.805,6.029,0.002,0.0,-0.04,113.0,114.0,107.0,13.4,1505.3,324.5,-0.7,1.8,2470.282,13.33,0.002,90.0
2020-01-09T02:37:03,42.805,6.029,0.018,0.001,-0.01,113.0,114.0,108.0,13.3,1505.3,328.2,-0.7,1.8,2470.278,13.33,0.018,86.8
2020-01-09T02:40:03,42.805,6.029,0.003,0.011,-0.013,112.0,115.0,108.0,13.4,1505.3,326.6,-0.7,1.8,2470.27,13.33,0.011,15.3
2020-01-09T02:43:03,42.805,6.029,0.011,0.012,-0.01,113.0,115.0,107.0,13.4,1505.3,325.9,-0.8,1.8,2470.231,13.33,0.016,42.5
2020-01-09T02:46:03,42.805,6.029,0.02,0.005,0.0,112.0,115.0,108.0,13.3,1505.3,326.1,-0.7,1.8,2470.323,13.33,0.02,76.0
2020-01-09T02:49:03,42.805,6.029,0.021,0.004,0.0,113.0,114.0,106.0,13.4,1505.3,327.5,-0.7,1.8,2470.315,13.33,0.021,79.2
2020-01-09T02:52:03,42.805,6.029,0.023,-0.002,0.0,111.0,114.0,109.0,13.4,1505.3,327.9,-0.7,1.8,2470.269,13.33,0.023,95.0
2020-01-09T02:55:03,42.805,6.029,0.01,0.004,-0.028,113.0,115.0,107.0,13.4,1505.3,325.1,-0.7,1.9,2470.314,13.33,0.01,68.2
2020-01-09T02:58:03,42.805,6.029,0.043,0.005,-0.021,111.0,115.0,107.0,13.4,1505.3,324.0,-0.7,1.8,2470.295,13.33,0.043,83.4
2020-01-09T03:04:03,42.805,6.029,0.009,-0.001,0.001,111.0,113.0,107.0,13.3,1505.3,322.8,-0.8,1.8,2470.324,13.31,0.009,96.3
2020-01-09T03:07:03,42.805,6.029,0.038,0.001,-0.035,112.0,116.0,107.0,13.4,1505.3,326.6,-0.7,1.8,2470.295,13.31,0.038,88.5
2020-01-09T03:10:03,42.805,6.029,0.016,0.003,0.01,112.0,114.0,108.0,13.3,1505.3,324.6,-0.7,1.9,2470.35,13.32,0.016,79.4
2020-01-09T03:13:03,42.805,6.029,0.004,-0.002,-0.006,112.0,117.0,107.0,13.4,1505.3,326.5,-0.7,1.8,2470.341,13.32,0.004,116.6
2020-01-09T03:16:03,42.805,6.029,0.044,0.0,0.028,112.0,115.0,107.0,13.3,1505.3,325.3,-0.7,1.9,2470.351,13.32,0.044,90.0
2020-01-09T03:19:03,42.805,6.029,0.018,0.004,-0.019,112.0,116.0,107.0,13.4,1505.3,323.7,-0.7,1.8,2470.314,13.32,0.018,77.5
2020-01-09T03:22:03,42.805,6.029,0.01,0.009,-0.025,113.0,113.0,107.0,13.4,1505.3,325.6,-0.7,1.8,2470.328,13.32,0.013,48.0
2020-01-09T03:25:03,42.805,6.029,0.046,-0.002,-0.011,112.0,115.0,107.0,13.3,1505.3,328.2,-0.7,1.8,2470.318,13.33,0.046,92.5
2020-01-09T03:28:03,42.805,6.029,0.033,-0.023,-0.009,112.0,114.0,107.0,13.3,1505.3,326.5,-0.7,1.8,2470.336,13.33,0.04,124.9
2020-01-09T03:31:03,42.805,6.029,0.052,-0.005,0.0,112.0,116.0,106.0,13.4,1505.3,328.4,-0.7,1.8,2470.353,13.33,0.052,95.5
2020-01-09T03:34:03,42.805,6.029,0.015,0.0,-0.015,112.0,116.0,106.0,13.4,1505.3,325.3,-0.7,1.8,2470.333,13.33,0.015,90.0
2020-01-09T03:37:03,42.805,6.029,0.012,0.002,-0.04,114.0,114.0,107.0,13.3,1505.3,327.1,-0.7,1.8,2470.338,13.33,0.012,80.5
2020-01-09T03:40:03,42.805,6.029,0.044,-0.018,-0.025,111.0,114.0,107.0,13.4,1505.3,326.2,-0.7,1.8,2470.363,13.33,0.047,112.2
2020-01-09T03:43:03,42.805,6.029,0.022,-0.013,0.005,111.0,113.0,107.0,13.4,1505.3,325.1,-0.7,1.8,2470.341,13.33,0.025,120.6
2020-01-09T03:46:03,42.805,6.029,0.053,0.003,0.0,111.0,115.0,107.0,13.4,1505.3,325.2,-0.7,1.8,2470.391,13.33,0.053,86.8
2020-01-09T03:49:03,42.805,6.029,0.027,-0.015,-0.001,110.0,115.0,108.0,13.4,1505.3,328.1,-0.7,1.8,2470.409,13.33,0.03,119.1
2020-01-09T03:52:03,42.805,6.029,0.031,-0.004,-0.016,111.0,112.0,107.0,13.4,1505.3,327.7,-0.7,1.8,2470.314,13.33,0.031,97.3
2020-01-09T03:55:03,42.805,6.029,0.024,-0.008,-0.025,113.0,113.0,107.0,13.4,1505.3,327.6,-0.7,1.8,2470.328,13.33,0.025,108.4
2020-01-09T03:58:03,42.805,6.029,0.024,0.009,0.022,112.0,113.0,107.0,13.4,1505.3,327.6,-0.7,1.8,2470.346,13.33,0.025,69.4
2020-01-09T04:04:03,42.805,6.029,0.034,-0.015,-0.038,114.0,113.0,107.0,13.4,1505.3,327.5,-0.7,1.8,2470.367,13.31,0.037,113.8
2020-01-09T04:07:03,42.805,6.029,0.029,0.002,0.0,114.0,112.0,107.0,13.4,1505.3,324.9,-0.7,1.8,2470.392,13.31,0.029,86.1
2020-01-09T04:10:03,42.805,6.029,0.033,-0.018,0.001,112.0,114.0,107.0,13.4,1505.3,325.0,-0.7,1.9,2470.337,13.32,0.037,118.6
2020-01-09T04:13:03,42.805,6.029,0.034,0.006,-0.011,112.0,115.0,107.0,13.3,1505.3,327.2,-0.7,1.8,2470.361,13.32,0.034,80.0
2020-01-09T04:16:03,42.805,6.029,0.027,0.005,-0.017,113.0,115.0,108.0,13.4,1505.3,328.1,-0.7,1.9,2470.373,13.32,0.027,79.5
2020-01-09T04:19:03,42.805,6.029,0.019,-0.002,-0.004,110.0,116.0,108.0,13.4,1505.3,327.5,-0.7,1.8,2470.394,13.32,0.019,96.0
2020-01-09T04:22:03,42.805,6.029,0.02,-0.001,-0.006,112.0,113.0,108.0,13.3,1505.3,326.4,-0.7,1.8,2470.379,13.32,0.02,92.9
2020-01-09T04:25:03,42.805,6.029,0.022,0.0,-0.012,113.0,113.0,107.0,13.4,1505.3,326.9,-0.7,1.8,2470.374,13.33,0.022,90.0
2020-01-09T04:28:03,42.805,6.029,0.004,0.017,-0.023,112.0,112.0,107.0,13.4,1505.3,326.5,-0.7,1.8,2470.375,13.33,0.017,13.2
2020-01-09T04:31:03,42.805,6.029,0.036,-0.01,-0.008,112.0,114.0,108.0,13.4,1505.3,327.9,-0.7,1.8,2470.373,13.33,0.037,105.5
2020-01-09T04:34:03,42.805,6.029,0.028,-0.016,0.005,113.0,115.0,107.0,13.4,1505.3,323.9,-0.7,1.8,2470.435,13.33,0.032,119.7
2020-01-09T04:37:03,42.805,6.029,0.005,0.0,-0.009,111.0,114.0,107.0,13.3,1505.3,327.1,-0.7,1.8,2470.351,13.33,0.005,90.0
2020-01-09T04:40:03,42.805,6.029,0.0,-0.012,-0.03,112.0,113.0,106.0,13.4,1505.3,324.3,-0.7,1.9,2470.414,13.33,0.012,180.0
2020-01-09T04:43:03,42.805,6.029,0.034,-0.004,0.014,112.0,114.0,109.0,13.4,1505.3,324.7,-0.7,1.8,2470.409,13.33,0.034,96.7
2020-01-09T04:46:03,42.805,6.029,0.027,0.003,-0.021,113.0,114.0,105.0,13.4,1505.3,325.6,-0.7,1.8,2470.383,13.33,0.027,83.7
2020-01-09T04:49:03,42.805,6.029,0.038,-0.005,0.016,113.0,112.0,106.0,13.4,1505.3,326.8,-0.7,1.8,2470.387,13.33,0.038,97.5
2020-01-09T04:52:03,42.805,6.029,0.022,0.004,-0.009,112.0,113.0,107.0,13.3,1505.3,323.4,-0.7,1.9,2470.354,13.32,0.022,79.7
2020-01-09T04:55:03,42.805,6.029,0.042,-0.001,-0.031,112.0,113.0,107.0,13.3,1505.3,326.2,-0.7,1.8,2470.417,13.32,0.042,91.4
2020-01-09T04:58:03,42.805,6.029,0.03,-0.021,-0.003,112.0,115.0,109.0,13.4,1505.3,325.3,-0.7,1.8,2470.431,13.32,0.036,125.0
2020-01-09T05:04:03,42.805,6.029,0.032,-0.019,-0.027,113.0,114.0,108.0,13.3,1505.2,325.3,-0.7,1.9,2470.448,13.3,0.037,120.7
2020-01-09T05:07:03,42.805,6.029,0.009,-0.021,-0.043,112.0,113.0,107.0,13.4,1505.3,323.5,-0.7,1.8,2470.429,13.31,0.022,156.8
2020-01-09T05:10:03,42.805,6.029,0.033,-0.011,0.008,111.0,113.0,107.0,13.4,1505.3,324.6,-0.7,1.8,2470.387,13.32,0.034,108.4
2020-01-09T05:13:03,42.805,6.029,-0.001,-0.017,-0.015,111.0,112.0,107.0,13.4,1505.3,324.2,-0.7,1.9,2470.414,13.32,0.017,183.4
2020-01-09T05:16:03,42.805,6.029,0.031,-0.014,-0.032,112.0,111.0,107.0,13.4,1505.3,328.6,-0.7,1.8,2470.432,13.32,0.034,114.3
2020-01-09T05:19:03,42.805,6.029,0.03,-0.015,-0.02,112.0,112.0,107.0,13.4,1505.3,326.8,-0.7,1.8,2470.436,13.32,0.033,116.6
2020-01-09T05:22:03,42.805,6.029,0.015,-0.006,-0.013,112.0,111.0,105.0,13.3,1505.3,323.3,-0.7,1.8,2470.421,13.33,0.016,111.8
2020-01-09T05:25:03,42.805,6.029,0.023,-0.025,-0.006,111.0,112.0,106.0,13.4,1505.3,325.7,-0.7,1.8,2470.428,13.33,0.033,137.4
2020-01-09T05:28:03,42.805,6.029,0.027,-0.022,-0.019,110.0,114.0,107.0,13.3,1505.3,326.3,-0.7,1.8,2470.414,13.33,0.034,129.2
2020-01-09T05:31:03,42.805,6.029,0.004,-0.005,-0.006,113.0,111.0,107.0,13.4,1505.3,326.7,-0.7,1.8,2470.406,13.33,0.006,141.3
2020-01-09T05:34:03,42.805,6.029,0.004,-0.006,-0.071,111.0,114.0,107.0,13.4,1505.3,324.6,-0.7,1.8,2470.417,13.33,0.007,146.3
2020-01-09T05:37:03,42.805,6.029,0.01,-0.022,-0.027,111.0,113.0,107.0,13.4,1505.3,323.9,-0.7,1.8,2470.445,13.33,0.024,155.6
2020-01-09T05:40:03,42.805,6.029,0.012,-0.004,-0.01,110.0,113.0,107.0,13.3,1505.3,326.6,-0.7,1.8,2470.442,13.33,0.012,108.4
2020-01-09T05:43:03,42.805,6.029,0.015,-0.015,-0.022,111.0,113.0,107.0,13.3,1505.3,323.6,-0.7,1.8,2470.461,13.33,0.021,135.0
2020-01-09T05:46:03,42.805,6.029,0.037,-0.019,-0.048,111.0,112.0,107.0,13.3,1505.3,324.3,-0.7,1.8,2470.431,13.33,0.041,117.2
2020-01-09T05:49:03,42.805,6.029,0.031,-0.01,-0.008,112.0,113.0,107.0,13.4,1505.3,323.7,-0.7,1.8,2470.43,13.33,0.032,107.9
2020-01-09T05:52:03,42.805,6.029,0.022,-0.018,-0.016,111.0,113.0,106.0,13.4,1505.3,325.6,-0.7,1.8,2470.46,13.33,0.028,129.3
2020-01-09T05:55:03,42.805,6.029,0.016,-0.034,-0.032,110.0,113.0,109.0,13.4,1505.3,326.4,-0.7,1.8,2470.392,13.33,0.037,154.8
2020-01-09T05:58:03,42.805,6.029,0.006,-0.044,-0.008,110.0,114.0,106.0,13.4,1505.3,324.5,-0.7,1.8,2470.401,13.33,0.044,172.2
2020-01-09T06:04:03,42.805,6.029,-0.006,-0.022,0.002,109.0,112.0,106.0,13.4,1505.3,324.3,-0.8,1.8,2470.457,13.31,0.022,195.3
2020-01-09T06:07:03,42.805,6.029,0.027,-0.019,-0.004,111.0,112.0,107.0,13.4,1505.3,325.3,-0.7,1.8,2470.447,13.31,0.033,125.1
2020-01-09T06:10:03,42.805,6.029,0.014,-0.02,-0.019,113.0,111.0,106.0,13.3,1505.3,322.9,-0.7,1.8,2470.457,13.32,0.024,145.0
2020-01-09T06:13:03,42.805,6.029,-0.006,-0.024,-0.012,110.0,112.0,104.0,13.4,1505.3,324.6,-0.7,1.8,2470.437,13.32,0.024,194.0
2020-01-09T06:16:03,42.805,6.029,-0.005,-0.021,-0.06,113.0,112.0,106.0,13.3,1505.3,325.3,-0.7,1.8,2470.43,13.32,0.021,193.4
2020-01-09T06:19:03,42.805,6.029,-0.015,-0.012,0.001,112.0,114.0,107.0,13.4,1505.3,325.4,-0.7,1.8,2470.481,13.33,0.019,231.3
2020-01-09T06:22:03,42.805,6.029,0.007,-0.005,-0.004,111.0,112.0,106.0,13.4,1505.3,327.3,-0.7,1.8,2470.413,13.33,0.008,125.5
2020-01-09T06:25:03,42.805,6.029,0.028,-0.024,0.005,112.0,113.0,106.0,13.4,1505.3,326.0,-0.7,1.8,2470.433,13.33,0.036,130.6
2020-01-09T06:28:03,42.805,6.029,-0.009,-0.032,-0.024,111.0,113.0,106.0,13.3,1505.3,324.1,-0.7,1.8,2470.432,13.33,0.033,195.7
2020-01-09T06:31:03,42.805,6.029,-0.005,-0.008,-0.039,111.0,114.0,107.0,13.4,1505.3,325.3,-0.7,1.8,2470.457,13.33,0.009,212.0
2020-01-09T06:34:03,42.805,6.029,-0.01,-0.027,-0.027,111.0,113.0,105.0,13.4,1505.3,326.9,-0.7,1.9,2470.425,13.33,0.028,200.3
2020-01-09T06:37:03,42.805,6.029,-0.007,-0.007,-0.035,112.0,113.0,105.0,13.4,1505.3,323.1,-0.7,1.8,2470.452,13.33,0.009,225.0
2020-01-09T06:40:03,42.805,6.029,-0.014,-0.015,-0.038,111.0,113.0,105.0,13.3,1505.3,325.7,-0.7,1.8,2470.423,13.33,0.02,223.0
2020-01-09T06:43:03,42.805,6.029,-0.023,-0.015,-0.039,112.0,113.0,108.0,13.4,1505.3,323.3,-0.7,1.8,2470.441,13.33,0.027,236.9
2020-01-09T06:46:03,42.805,6.029,-0.006,-0.013,-0.032,110.0,112.0,106.0,13.4,1505.3,324.8,-0.7,1.8,2470.436,13.33,0.014,204.8
2020-01-09T06:49:03,42.805,6.029,-0.001,-0.024,-0.043,112.0,112.0,107.0,13.4,1505.3,326.0,-0.7,1.8,2470.448,13.33,0.024,182.4
2020-01-09T06:52:03,42.805,6.029,-0.004,-0.003,-0.002,113.0,112.0,108.0,13.4,1505.3,325.7,-0.7,1.8,2470.436,13.33,0.005,233.1
2020-01-09T06:55:03,42.805,6.029,-0.007,0.003,-0.019,112.0,112.0,106.0,13.3,1505.3,328.4,-0.7,1.8,2470.432,13.33,0.007,293.2
2020-01-09T06:58:03,42.805,6.029,0.01,-0.003,-0.01,113.0,114.0,106.0,13.4,1505.3,328.0,-0.7,1.8,2470.417,13.33,0.01,106.7
2020-01-09T07:04:03,42.805,6.029,0.0,-0.023,0.009,111.0,112.0,107.0,13.3,1505.3,327.4,-0.7,1.9,2470.481,13.31,0.023,180.0
2020-01-09T07:07:03,42.805,6.029,0.017,0.004,-0.021,113.0,112.0,106.0,13.4,1505.3,323.8,-0.7,1.8,2470.454,13.32,0.017,76.8
2020-01-09T07:10:03,42.805,6.029,0.005,0.0,0.026,110.0,112.0,107.0,13.3,1505.3,328.7,-0.7,1.8,2470.465,13.33,0.005,90.0
2020-01-09T07:13:03,42.805,6.029,0.007,-0.011,-0.017,112.0,112.0,105.0,13.3,1505.3,327.2,-0.7,1.8,2470.444,13.33,0.013,147.5
2020-01-09T07:16:03,42.805,6.029,-0.008,-0.002,-0.026,111.0,110.0,106.0,13.4,1505.3,324.9,-0.7,1.8,2470.471,13.33,0.008,256.0
2020-01-09T07:19:03,42.805,6.029,-0.014,-0.018,-0.011,111.0,113.0,105.0,13.4,1505.3,327.6,-0.7,1.8,2470.459,13.33,0.022,217.9
2020-01-09T07:22:03,42.805,6.029,-0.012,-0.02,-0.001,110.0,111.0,106.0,13.3,1505.3,324.6,-0.7,1.8,2470.45,13.33,0.023,211.0
2020-01-09T07:25:03,42.805,6.029,0.011,-0.003,-0.029,110.0,111.0,107.0,13.4,1505.3,323.1,-0.7,1.8,2470.452,13.33,0.011,105.3
2020-01-09T07:28:03,42.805,6.029,0.01,0.0,-0.012,110.0,110.0,106.0,13.4,1505.3,326.7,-0.7,1.9,2470.43,13.33,0.01,90.0
2020-01-09T07:31:03,42.805,6.029,-0.011,-0.004,-0.006,111.0,110.0,107.0,13.3,1505.3,325.7,-0.7,1.8,2470.444,13.33,0.011,250.0
2020-01-09T07:34:03,42.805,6.029,-0.028,-0.013,-0.037,111.0,111.0,106.0,13.4,1505.3,327.8,-0.7,1.8,2470.442,13.33,0.03,245.1
2020-01-09T07:37:03,42.805,6.029,-0.012,-0.006,0.002,111.0,111.0,107.0,13.4,1505.3,325.2,-0.7,1.9,2470.404,13.33,0.013,243.4
2020-01-09T07:40:03,42.805,6.029,0.0,0.005,-0.025,109.0,110.0,106.0,13.4,1505.3,325.0,-0.7,1.9,2470.425,13.33,0.005,0.0
2020-01-09T07:43:03,42.805,6.029,-0.012,0.004,-0.016,109.0,110.0,106.0,13.4,1505.3,326.5,-0.7,1.8,2470.452,13.33,0.012,288.4
2020-01-09T07:46:03,42.805,6.029,-0.032,-0.007,0.001,109.0,112.0,105.0,13.3,1505.3,328.1,-0.7,1.8,2470.443,13.33,0.032,257.7
2020-01-09T07:49:03,42.805,6.029,-0.009,-0.024,-0.008,110.0,110.0,107.0,13.4,1505.3,326.5,-0.7,1.8,2470.371,13.33,0.025,200.6
2020-01-09T07:52:03,42.805,6.029,-0.013,-0.002,0.0,111.0,116.0,107.0,13.3,1505.3,325.4,-0.7,1.9,2470.407,13.33,0.013,261.3
2020-01-09T07:55:03,42.805,6.029,-0.024,-0.001,-0.037,111.0,113.0,106.0,13.4,1505.3,326.5,-0.7,1.8,2470.482,13.33,0.024,267.6
2020-01-09T07:58:03,42.805,6.029,-0.008,-0.007,-0.031,111.0,114.0,106.0,13.4,1505.3,326.8,-0.7,1.8,2470.382,13.33,0.01,228.8
2020-01-09T08:04:03,42.805,6.029,-0.019,-0.008,-0.003,110.0,112.0,106.0,13.4,1505.3,328.2,-0.7,1.8,2470.429,13.32,0.02,247.2
2020-01-09T08:07:03,42.805,6.029,-0.008,0.029,-0.002,110.0,112.0,106.0,13.4,1505.3,324.9,-0.8,1.8,2470.434,13.32,0.03,344.6
2020-01-09T08:10:03,42.805,6.029,-0.006,-0.015,-0.01,112.0,113.0,105.0,13.4,1505.3,323.4,-0.7,1.8,2470.412,13.33,0.016,201.8
2020-01-09T08:13:03,42.805,6.029,-0.025,0.001,-0.033,112.0,113.0,107.0,13.4,1505.3,327.8,-0.8,1.8,2470.451,13.33,0.025,272.3
2020-01-09T08:16:03,42.805,6.029,-0.037,-0.023,-0.035,112.0,113.0,106.0,13.4,1505.3,325.8,-0.7,1.8,2470.426,13.33,0.043,238.1
2020-01-09T08:19:03,42.805,6.029,-0.03,0.0,-0.029,111.0,112.0,105.0,13.3,1505.3,327.0,-0.7,1.8,2470.407,13.33,0.03,270.0
2020-01-09T08:22:03,42.805,6.029,0.013,0.002,-0.004,112.0,112.0,106.0,13.3,1505.3,327.1,-0.7,1.8,2470.434,13.33,0.013,81.3
2020-01-09T08:25:03,42.805,6.029,-0.012,-0.004,-0.029,111.0,112.0,106.0,13.3,1505.3,327.0,-0.7,1.8,2470.394,13.33,0.012,251.6
2020-01-09T08:28:03,42.805,6.029,-0.003,0.0,-0.033,110.0,113.0,106.0,13.4,1505.4,324.9,-0.7,1.8,2470.395,13.34,0.003,270.0
2020-01-09T08:31:03,42.805,6.029,-0.021,0.005,0.006,111.0,112.0,106.0,13.3,1505.4,323.4,-0.7,1.9,2470.416,13.34,0.021,283.4
2020-01-09T08:34:03,42.805,6.029,-0.014,0.0,-0.004,111.0,113.0,107.0,13.3,1505.4,324.5,-0.7,1.9,2470.405,13.34,0.014,270.0
2020-01-09T08:37:03,42.805,6.029,-0.024,-0.013,-0.032,110.0,112.0,106.0,13.4,1505.4,323.4,-0.7,1.8,2470.423,13.34,0.027,241.6
2020-01-09T08:40:03,42.805,6.029,0.012,0.001,0.032,112.0,111.0,106.0,13.4,1505.4,324.4,-0.8,1.8,2470.401,13.34,0.012,85.2
2020-01-09T08:43:03,42.805,6.029,-0.014,-0.021,-0.017,111.0,113.0,105.0,13.4,1505.4,327.3,-0.7,1.9,2470.419,13.34,0.025,213.7
2020-01-09T08:46:03,42.805,6.029,-0.025,-0.005,-0.009,112.0,112.0,104.0,13.4,1505.4,325.4,-0.7,1.9,2470.363,13.34,0.025,258.7
2020-01-09T08:49:03,42.805,6.029,-0.01,0.006,0.024,111.0,113.0,108.0,13.4,1505.4,325.7,-0.7,1.8,2470.359,13.34,0.011,301.0
2020-01-09T08:52:03,42.805,6.029,-0.004,-0.013,-0.03,111.0,113.0,107.0,13.4,1505.4,324.3,-0.7,1.8,2470.404,13.34,0.013,197.1
2020-01-09T08:55:03,42.805,6.029,-0.019,-0.008,-0.035,110.0,114.0,107.0,13.4,1505.4,324.1,-0.7,1.9,2470.394,13.34,0.02,247.2
2020-01-09T08:58:03,42.805,6.029,-0.031,0.014,-0.005,111.0,113.0,106.0,13.4,1505.4,326.8,-0.7,1.8,2470.35,13.34,0.034,294.3
2020-01-09T09:04:03,42.805,6.029,-0.003,0.018,-0.018,111.0,111.0,108.0,13.4,1505.3,327.5,-0.7,1.8,2470.402,13.32,0.018,350.5
2020-01-09T09:07:03,42.805,6.029,-0.019,0.014,-0.002,109.0,112.0,108.0,13.4,1505.3,323.5,-0.7,1.8,2470.43,13.33,0.023,306.4
2020-01-09T09:10:03,42.805,6.029,-0.023,0.008,-0.023,112.0,114.0,107.0,13.3,1505.3,326.4,-0.7,1.8,2470.389,13.33,0.024,289.2
2020-01-09T09:13:03,42.805,6.029,-0.02,0.016,-0.017,110.0,112.0,106.0,13.4,1505.3,324.7,-0.7,1.8,2470.402,13.33,0.025,308.7
2020-01-09T09:16:03,42.805,6.029,-0.032,0.025,-0.032,112.0,112.0,106.0,13.4,1505.3,328.4,-0.7,1.8,2470.389,13.33,0.04,308.0
2020-01-09T09:19:03,42.805,6.029,-0.026,0.007,-0.028,111.0,113.0,107.0,13.3,1505.4,328.4,-0.7,1.9,2470.357,13.34,0.026,285.1
2020-01-09T09:22:03,42.805,6.029,-0.02,0.009,-0.034,111.0,112.0,105.0,13.4,1505.4,327.8,-0.7,1.8,2470.371,13.34,0.021,294.2
2020-01-09T09:25:03,42.805,6.029,-0.028,-0.006,-0.035,112.0,113.0,106.0,13.3,1505.4,325.4,-0.7,1.9,2470.412,13.34,0.028,257.9
2020-01-09T09:28:03,42.805,6.029,-0.025,0.0,-0.008,112.0,112.0,104.0,13.3,1505.4,325.7,-0.7,1.8,2470.419,13.34,0.025,270.0
2020-01-09T09:31:03,42.805,6.029,-0.032,0.0,0.012,112.0,112.0,106.0,13.3,1505.4,323.4,-0.7,1.8,2470.368,13.34,0.032,270.0
2020-01-09T09:34:03,42.805,6.029,-0.027,0.009,-0.003,112.0,112.0,105.0,13.4,1505.4,325.5,-0.7,1.9,2470.322,13.34,0.028,288.4
2020-01-09T09:37:03,42.805,6.029,-0.032,0.029,-0.038,111.0,113.0,106.0,13.4,1505.4,328.6,-0.7,1.8,2470.411,13.34,0.043,312.2
2020-01-09T09:40:03,42.805,6.029,-0.03,0.004,-0.014,112.0,111.0,107.0,13.3,1505.4,327.9,-0.7,1.8,2470.356,13.34,0.03,277.6
2020-01-09T09:43:03,42.805,6.029,-0.029,0.015,0.011,111.0,112.0,105.0,13.4,1505.4,323.8,-0.7,1.8,2470.352,13.34,0.032,297.4
2020-01-09T09:46:03,42.805,6.029,-0.029,0.001,-0.042,110.0,113.0,105.0,13.4,1505.4,327.4,-0.7,1.8,2470.346,13.34,0.029,272.0
2020-01-09T09:49:03,42.805,6.029,-0.042,0.008,-0.016,110.0,114.0,106.0,13.3,1505.4,326.5,-0.7,1.8,2470.349,13.34,0.042,280.8
2020-01-09T09:52:03,42.805,6.029,-0.018,0.012,0.003,110.0,113.0,105.0,13.4,1505.4,326.9,-0.7,1.8,2470.389,13.34,0.021,303.7
2020-01-09T09:55:03,42.805,6.029,-0.023,0.02,-0.002,111.0,113.0,106.0,13.4,1505.4,327.7,-0.7,1.9,2470.361,13.34,0.03,311.0
2020-01-09T09:58:03,42.805,6.029,-0.022,0.015,-0.012,111.0,114.0,105.0,13.3,1505.4,327.9,-0.7,1.8,2470.333,13.34,0.026,304.3